Home > Weather > Santiago > Past weeks

Flag for Chile Past Weather in Santiago, Chile — Yesterday and Last 2 Weeks

Now
54 °F

Scattered clouds.


Feels Like: 54 °F
Forecast: 42 / 68 °F
Wind: 2 mph from North

Location: Pudahuel

Current Time: Aug 25, 2016 at 12:23:29 PM

Latest Report: Aug 25, 2016 at 12:00 PM


Visibility: 3 mi

Pressure: 30.09 "Hg (28.08 "Hg at 576m altitude)

Humidity: 63%

Dew Point: 41 °F

Location of SantiagoLocation

Past Weather in Santiago — Graph

°F

Santiago Temperature Yesterday

Maximum temperature yesterday: 55 °F (at 4:00 PM)
Minimum temperature yesterday: 50 °F (at 3:00 AM)
Average temperature yesterday: 52 °F

High & Low Weather Summary for the Past Weeks

 TemperatureHumidityPressure
High77 °F (Aug 22, 3:00 PM)100% (Aug 23, 5:00 AM)30.30 "Hg (Aug 23, 5:00 AM)
Low32 °F (Aug 21, 7:00 AM)12% (Aug 21, 4:00 PM)29.83 "Hg (Aug 22, 7:00 AM)
Average53 °F67%30.10 "Hg
* Reported Aug 10 10:00 AM — Aug 25 11:00 AM, Santiago, Weather by CustomWeather, © 2016

Note: Actual official high and low records may vary slightly from our data, if they occured in-between our weather recording intervals... More about our weather records

Advertising

Santiago Weather History for the Previous 24 Hours

Scroll right to see more
 ConditionsComfort  
Time TempWeatherWind HumidityBarometerVisibility
11:00 AM
Thu, Aug 25
52 °FPartly sunny.1 mph67%30.09 "Hg3 mi
10:00 AM48 °FPartly sunny.2 mph82%30.07 "Hg2 mi
9:00 AM46 °FPartly sunny.2 mph87%30.07 "Hg2 mi
8:00 AM45 °FPassing clouds.2 mph87%30.07 "Hg4 mi
7:00 AM45 °FPassing clouds.2 mph81%30.07 "Hg4 mi
6:00 AM45 °FPassing clouds.5 mph87%30.04 "Hg4 mi
5:00 AM46 °FPassing clouds.2 mph82%30.04 "Hg5 mi
4:00 AM48 °FPassing clouds.2 mph82%30.07 "Hg5 mi
3:00 AM50 °FOvercast.3 mph76%30.09 "Hg5 mi
2:00 AM50 °FOvercast.6 mph76%30.09 "HgN/A
1:00 AM52 °FPassing clouds.1 mph72%30.09 "HgN/A
12:00 AM52 °FOvercast.No wind72%30.09 "HgN/A
11:00 PM
Wed, Aug 24
52 °FOvercast.5 mph72%30.09 "HgN/A
10:00 PM54 °FOvercast.2 mph67%30.09 "HgN/A
9:00 PM54 °FOvercast.3 mph67%30.09 "Hg5 mi
8:00 PM54 °FOvercast.8 mph67%30.09 "Hg5 mi
7:00 PM54 °FOvercast.7 mph67%30.09 "Hg5 mi
6:00 PM55 °FOvercast.6 mph63%30.07 "Hg5 mi
5:00 PM55 °FOvercast.6 mph63%30.07 "Hg4 mi
4:00 PM55 °FMore clouds than sun.3 mph63%30.07 "Hg4 mi
3:00 PM54 °FBroken clouds.6 mph67%30.07 "Hg3 mi
2:00 PM54 °FOvercast.5 mph67%30.07 "Hg3 mi
1:00 PM52 °FOvercast.5 mph77%30.09 "Hg2 mi
12:00 PM52 °FOvercast.3 mph77%30.07 "Hg2 mi
Weather by CustomWeather, © 2016

See weather overviewHow to use our weather pages